Tracking 19831 objects as of 23-Aug-2019
HD Live streaming from Space Station
objects crossing your sky now

ASTRO H DEB


ASTRO H DEB is no longer on orbit


NORAD ID: 41443
Int'l Code: 2016-012M
Perigee: N/A
Apogee: N/A
Inclination: N/A
Period: N/A
Semi major axis: N/A
RCS: N/A
Launch date: February 17, 2016
Source: Japan (JPN)
Launch site: TANEGASHIMA SPACE CENTER (TNSTA)
Decay date: 2016-04-20

Note: This is SATELLITE DEBRIS
aabbcc
Your satellite tracking list
Your tracking list is empty




NASA's NSSDC Master Catalog

Two Line Element Set (TLE):
1 41443U 16012M   16107.63616321  .04398769  00000-0  80691-1 0  9990
2 41443  30.9769 297.7534 0019652 254.3679 178.1548 15.44306522  3210
Source of the keplerian elements: AFSPC